Tracking 28790 objects as of 18-Apr-2024
HD Live streaming from Space Station
objects crossing your sky now

NOAA 16 DEB

Track NOAA 16 DEB now!
10-day predictions


NORAD ID: 41509
Int'l Code: 2000-055MH
Perigee: 813.6 km
Apogee: 844.8 km
Inclination: 98.8 °
Period: 101.3 minutes
Semi major axis: 7200 km
RCS: Unknown
Launch date: September 21, 2000
Source: United States (US)
Launch site: AIR FORCE WESTERN TEST RANGE (AFWTR)

Note: This is SATELLITE DEBRIS
Your satellite tracking list
Your tracking list is empty




NASA's NSSDC Master Catalog

Two Line Element Set (TLE):
1 41509U 00055MH  24108.01954699  .00011144  00000-0  51439-2 0  9992
2 41509  98.7747 194.6610 0021703 120.6720 239.6599 14.20976249416919
Source of the keplerian elements: AFSPC